Location: Cantaing
(50.1487°N, 3.1675°E)
Time: 05:30:13
(UTC+00:00)

ATLAS 2AS CENTAUR R/B - Pass Details

Date: 14 January 2026
Orbit: 1050 x 1161 km, 63.7° (Epoch: 10 February)

Event Time Altitude Azimuth Distance (km) Brightness Sun altitude
Exits shadow 04:23:04 33° 355° (N) 1,705 3.7 -31.0°
Maximum altitude 04:24:54 38° 27° (NNE) 1,548 3.7 -30.7°
Drops below altitude 10° 04:31:08 10° 95° (E) 2,866 5.9 -29.7°
Sets 04:33:59 0° 103° (ESE) 3,821 6.7 -29.3°
